PVG77 EPRZ-EPWR

Flight info

Callsign PVG77
Flight time 0h 42m
Altitude 30000
Route GOVRI T738 XEVLU/N0406F280 Z127 USALO L984 PADKA DCT REGLI L617 EPOPA
Aircraft B77W/H-SDE1E2E3FGHIJ2J3J4J5M1RWXY/LB1D1

Departure

Time 2026-05-04 09:42
Airport Rzeszów-Jasionka Airport (EPRZ)

Arrival

Time 2026-05-04 10:25
Airport Copernicus Wrocław Airport (EPWR)
Time Latitude Longitude Altitude Speed Heading
2026-05-04 09:15 50.11403 22.02529 693 ft 0 kts 360°
2026-05-04 09:17 50.11348 22.02523 692 ft 2 kts 30°
2026-05-04 09:18 50.11337 22.02509 691 ft 2 kts 49°
2026-05-04 09:18 50.11328 22.02490 692 ft 2 kts 68°
2026-05-04 09:18 50.11325 22.02468 692 ft 2 kts 86°
2026-05-04 09:18 50.11325 22.02459 692 ft 0 kts 92°
2026-05-04 09:37 50.11145 22.02732 688 ft 12 kts 182°
2026-05-04 09:37 50.11052 22.02742 687 ft 13 kts 159°
2026-05-04 09:38 50.10991 22.02859 685 ft 15 kts 98°
2026-05-04 09:38 50.10980 22.03025 684 ft 15 kts 92°
2026-05-04 09:38 50.10979 22.03194 684 ft 16 kts 90°
2026-05-04 09:38 50.10976 22.03378 681 ft 17 kts 91°
2026-05-04 09:39 50.10972 22.03573 679 ft 18 kts 89°
2026-05-04 09:39 50.10973 22.03782 677 ft 19 kts 90°
2026-05-04 09:39 50.10970 22.03995 675 ft 20 kts 91°
2026-05-04 09:39 50.10970 22.04229 671 ft 22 kts 89°
2026-05-04 09:40 50.10972 22.04440 671 ft 14 kts 88°
2026-05-04 09:40 50.10972 22.04560 671 ft 9 kts 121°
2026-05-04 09:40 50.10952 22.04536 671 ft 5 kts 285°
2026-05-04 09:40 50.10955 22.04509 671 ft 0 kts 276°
2026-05-04 09:42 50.11633 21.93954 6238 ft 218 kts 266°
2026-05-04 09:43 50.11319 21.91609 7107 ft 237 kts 255°
2026-05-04 09:43 50.11144 21.89018 8089 ft 254 kts 268°
2026-05-04 09:43 50.11171 21.86176 9118 ft 271 kts 270°
2026-05-04 09:43 50.11216 21.83281 10266 ft 280 kts 270°
2026-05-04 09:44 50.11255 21.80184 11327 ft 295 kts 270°
2026-05-04 09:44 50.11290 21.76961 12365 ft 309 kts 270°
2026-05-04 09:44 50.11326 21.73599 13646 ft 316 kts 270°
2026-05-04 09:46 50.11556 21.48382 21847 ft 359 kts 272°
2026-05-04 09:46 50.11587 21.44455 22899 ft 365 kts 272°
2026-05-04 09:46 50.11615 21.40524 23916 ft 371 kts 271°
2026-05-04 09:47 50.11542 21.36479 24889 ft 378 kts 269°
2026-05-04 09:47 50.11435 21.32379 25790 ft 385 kts 269°
2026-05-04 09:49 50.10681 21.02161 30049 ft 407 kts 270°
2026-05-04 09:49 50.10631 20.97758 30054 ft 406 kts 271°
2026-05-04 09:51 50.10342 20.67170 30049 ft 405 kts 271°
2026-05-04 09:51 50.10239 20.58436 30051 ft 404 kts 271°
2026-05-04 09:52 50.10160 20.49723 30050 ft 404 kts 271°
2026-05-04 09:52 50.10091 20.41028 30050 ft 404 kts 271°
2026-05-04 09:53 50.10014 20.32318 30047 ft 403 kts 270°
2026-05-04 09:53 50.09929 20.23592 30038 ft 403 kts 270°
2026-05-04 09:54 50.09838 20.14928 30045 ft 402 kts 270°
2026-05-04 09:54 50.09740 20.06230 30042 ft 402 kts 270°
2026-05-04 09:55 50.09636 19.97593 30046 ft 400 kts 270°
2026-05-04 09:55 50.09108 19.88970 30047 ft 402 kts 257°
2026-05-04 09:56 50.07642 19.80629 30054 ft 403 kts 256°
2026-05-04 09:56 50.06129 19.72231 30052 ft 404 kts 256°
2026-05-04 09:57 50.04611 19.63847 30051 ft 403 kts 256°
2026-05-04 09:57 50.03085 19.55463 30046 ft 403 kts 256°
2026-05-04 09:58 50.01559 19.47116 30045 ft 402 kts 256°
2026-05-04 09:58 50.00029 19.38789 30044 ft 402 kts 256°
2026-05-04 10:00 49.94094 19.05439 30037 ft 402 kts 265°
2026-05-04 10:04 49.93559 18.45465 29693 ft 386 kts 270°
2026-05-04 10:04 49.93518 18.41349 29245 ft 382 kts 270°
2026-05-04 10:04 49.93479 18.37297 28775 ft 378 kts 270°
2026-05-04 10:04 49.93452 18.33225 28303 ft 374 kts 272°
2026-05-04 10:05 49.93740 18.29272 27856 ft 370 kts 282°
2026-05-04 10:05 49.94462 18.25462 27402 ft 366 kts 291°
2026-05-04 10:05 49.95533 18.21947 26976 ft 362 kts 297°
2026-05-04 10:05 49.96695 18.18477 26535 ft 365 kts 297°
2026-05-04 10:06 49.97893 18.14910 26073 ft 375 kts 297°
2026-05-04 10:06 49.99097 18.11319 25597 ft 374 kts 297°
2026-05-04 10:06 50.00288 18.07763 25149 ft 371 kts 297°
2026-05-04 10:08 50.12106 17.94311 22405 ft 360 kts 338°
2026-05-04 10:08 50.14469 17.92950 21944 ft 358 kts 338°
2026-05-04 10:08 50.16762 17.91626 21489 ft 356 kts 338°
2026-05-04 10:08 50.19091 17.90278 21027 ft 354 kts 337°
2026-05-04 10:09 50.21360 17.88964 20578 ft 352 kts 337°
2026-05-04 10:09 50.23642 17.87640 20122 ft 351 kts 337°
2026-05-04 10:09 50.25937 17.86307 19659 ft 350 kts 337°
2026-05-04 10:09 50.28206 17.84987 19203 ft 349 kts 336°
2026-05-04 10:10 50.30461 17.83674 18748 ft 347 kts 336°
2026-05-04 10:10 50.32717 17.82360 18289 ft 345 kts 336°
2026-05-04 10:10 50.34946 17.81059 17834 ft 343 kts 336°
2026-05-04 10:10 50.37123 17.79654 17381 ft 339 kts 329°
2026-05-04 10:11 50.39172 17.77913 16934 ft 336 kts 327°
2026-05-04 10:11 50.41190 17.76112 16489 ft 334 kts 327°
2026-05-04 10:11 50.43206 17.74308 16043 ft 332 kts 327°
2026-05-04 10:11 50.45211 17.72521 15597 ft 331 kts 327°
2026-05-04 10:12 50.47192 17.70758 15154 ft 329 kts 327°
2026-05-04 10:12 50.49176 17.68990 14713 ft 328 kts 327°
2026-05-04 10:12 50.51136 17.67244 14266 ft 327 kts 327°
2026-05-04 10:12 50.53119 17.65476 13824 ft 326 kts 327°
2026-05-04 10:13 50.55064 17.63740 13391 ft 325 kts 327°
2026-05-04 10:13 50.57023 17.61990 12950 ft 324 kts 327°
2026-05-04 10:13 50.58984 17.60236 12509 ft 323 kts 327°
2026-05-04 10:13 50.60930 17.58493 12069 ft 322 kts 327°
2026-05-04 10:14 50.62868 17.56756 11629 ft 321 kts 327°
2026-05-04 10:14 50.64804 17.55020 11189 ft 320 kts 327°
2026-05-04 10:16 50.77508 17.43582 9016 ft 289 kts 328°
2026-05-04 10:16 50.79239 17.42017 8698 ft 287 kts 328°
2026-05-04 10:16 50.80965 17.40457 8378 ft 285 kts 328°
2026-05-04 10:16 50.82679 17.38906 8062 ft 282 kts 328°
2026-05-04 10:17 50.84472 17.37752 7738 ft 283 kts 349°
2026-05-04 10:17 50.86420 17.37936 7419 ft 283 kts 15°
2026-05-04 10:19 50.96415 17.33380 5455 ft 232 kts 296°
2026-05-04 10:19 50.97118 17.31140 5212 ft 226 kts 295°
2026-05-04 10:19 50.97788 17.28920 4976 ft 224 kts 295°
2026-05-04 10:19 50.98466 17.26674 4737 ft 223 kts 295°
2026-05-04 10:20 50.99128 17.24515 4514 ft 221 kts 295°
2026-05-04 10:20 50.99811 17.22310 4279 ft 222 kts 295°
2026-05-04 10:20 51.00496 17.20110 4045 ft 221 kts 295°
2026-05-04 10:20 51.01168 17.17954 3820 ft 211 kts 295°
2026-05-04 10:21 51.01792 17.15948 3650 ft 196 kts 295°
2026-05-04 10:21 51.02381 17.14048 3492 ft 189 kts 295°
2026-05-04 10:21 51.02957 17.12196 3323 ft 186 kts 295°
2026-05-04 10:21 51.03522 17.10378 3101 ft 184 kts 295°
2026-05-04 10:22 51.04651 17.06752 2650 ft 182 kts 295°
2026-05-04 10:22 51.05207 17.04959 2419 ft 182 kts 295°
2026-05-04 10:22 51.05761 17.03170 2189 ft 182 kts 294°
2026-05-04 10:23 51.06316 17.01379 1955 ft 181 kts 294°
2026-05-04 10:23 51.06876 16.99567 1720 ft 180 kts 294°
2026-05-04 10:25 51.10484 16.87923 411 ft 134 kts 298°
2026-05-04 10:25 51.10774 16.86964 410 ft 17 kts 296°
2026-05-04 10:25 51.10807 16.86855 409 ft 12 kts 296°
2026-05-04 10:25 51.10849 16.86727 409 ft 13 kts 302°
2026-05-04 10:26 51.10849 16.86656 409 ft 4 kts 160°
2026-05-04 10:26 51.10822 16.86738 409 ft 13 kts 113°
2026-05-04 10:26 51.10778 16.86897 410 ft 16 kts 114°
2026-05-04 10:26 51.10730 16.87064 411 ft 16 kts 115°
2026-05-04 10:27 51.10728 16.87220 411 ft 15 kts 60°
2026-05-04 10:27 51.10815 16.87324 409 ft 16 kts 26°
2026-05-04 10:27 51.10916 16.87410 409 ft 15 kts 50°
2026-05-04 10:27 51.10917 16.87576 407 ft 12 kts 114°
2026-05-04 10:28 51.10905 16.87677 407 ft 6 kts 52°
2026-05-04 10:28 51.10921 16.87699 407 ft 4 kts 37°
2026-05-04 10:28 51.10941 16.87717 406 ft 2 kts 29°